Location: Stoke Bliss
(52.2667°N, 2.5167°W)
Time: 19:24:48
(UTC+00:00)

ARIANE 5 R/B - Pass Details

Date: 03 March 2021
Orbit: 621 x 655 km, 98.2° (Epoch: 15 April)

Event Time Altitude Azimuth Distance (km) Brightness Sun altitude
Exits shadow 20:21:41 26° 32° (NNE) 1,282 4.0 -23.1°
Drops below altitude 10° 20:24:22 10° 2° (N) 2,077 5.5 -23.5°
Sets 20:26:47 0° 352° (N) 2,995 6.5 -23.9°
